Location: Blachownia
(50.7807°N, 18.9578°E)
Time: 07:12:43
(UTC+01:00)

ISS - Pass Details

Date: 31 January 2019
Orbit: 403 x 411 km, 51.6° (Epoch: 21 February)

Event Time Altitude Azimuth Distance (km) Brightness Sun altitude
Rises 18:09:32 0° 270° (W) 2,335 1.8 -15.2°
Reaches altitude 10° 18:11:37 10° 273° (W) 1,476 0.3 -15.5°
Maximum altitude 18:14:55 74° 359° (N) 432 -3.8 -16.0°
Enters shadow 18:15:53 42° 73° (ENE) 598 -3.5 -16.2°
